Location: Unspecified
(49.8670°N, 0.0000°E)
Time: 05:29:38
(UTC+00:00)

S-56A Canister/Altair - Pass Details

Date: 17 June 2019
Orbit: 633 x 2499 km, 38.9° (Epoch: 17 August)

Event Time Altitude Azimuth Distance (km) Brightness Sun altitude
Rises 18:20:47 0° 236° (SW) 4,082 11.8 14.6°
Reaches altitude 10° 18:24:30 10° 224° (SW) 2,805 10.8 14.1°
Maximum altitude 18:29:27 24° 173° (S) 1,669 9.1 13.3°
Drops below altitude 10° 18:33:24 10° 120° (ESE) 2,193 9.3 12.7°
Sets 18:35:55 0° 105° (ESE) 3,001 9.9 12.3°
